Weather Roundup
Issued by NWS Chicago, IL

Home | Current Version | Previous Version | Graphics & Text | Print | Product List | Glossary On
Versions: 1 2 3 4 5 6 7 8 9 10 11 12 13 14 15 16 17 18 19 20 21 22 23 24 25 26 27 28 29 30 31 32 33 34 35 36 37 38 39 40 41 42 43 44 45 46 47 48 49 50
391
NZUS59 KLOT 231908
HRRLOT

CHICAGO AREA WEATHER ROUNDUP
NATIONAL WEATHER SERVICE CHICAGO/ROMEOVILLE IL
200 PM CDT SAT JUL 23 2016

NOTE: "FAIR" INDICATES FEW OR NO CLOUDS BELOW 12,000 FEET WITH NO
SIGNIFICANT WEATHER AND/OR OBSTRUCTIONS TO VISIBILITY.

* THESE STATIONS ARE NOT UNDER NWS QUALITY CONTROL. THEY ALSO MAY NOT
  REPORT WEATHER SUCH AS PRECIPITATION OR FOG.

ILZ005-006-012>014-019>023-232000-
NORTHEAST ILLINOIS

CITY           SKY/WX    TMP DP  RH WIND       PRES   REMARKS
OHARE          CLOUDY    89  73  59 VRB3      29.97F HX  97
MIDWAY         CLOUDY    91  73  55 SW7       29.96F HX  99
AURORA         CLOUDY    87  77  72 S8        29.99S HX  99
LANSING*       CLOUDY    89  75  63 SW6       29.98F HX  98
JOLIET*        CLOUDY    89  78  70 SW6       29.98S HX 103
WAUKEGAN       PTSUNNY   84  77  79 SE7       29.98S HX  94
DUPAGE AIRPORT CLOUDY    89  74  60 S7        29.98F HX  98
WHEELING       CLOUDY    89  76  65 CALM      29.98F HX 100
MORRIS*        CLOUDY    87  77  72 SW8       29.98S HX  99
LEWIS AIRPORT* CLOUDY    87  73  62 SW7       29.99S HX  94
NORTHERLY ISL    N/A     83  75  77 E3          N/A  HX  90
$$

WIZ051-052-058>065-066-070>072-232000-
SOUTHEAST WISCONSIN

CITY           SKY/WX    TMP DP  RH WIND       PRES   REMARKS
MILWAUKEE      CLOUDY    86  73  65 SE10      29.99S HX  93
KENOSHA*       LGT RAIN  86  75  69 E8        29.99S HX  95
RACINE*        CLOUDY    85  74  69 SE8       30.01S HX  92
BURLINGTON     CLOUDY    86  76  72 CALM      29.98S HX  97
WAUKESHA       MOSUNNY   84  72  65 S3        30.00F HX  89
$$

INZ001>003-010>013-019-020-232000-
NORTHWEST INDIANA

CITY           SKY/WX    TMP DP  RH WIND       PRES   REMARKS
GARY*          CLOUDY    88  84  89 NE6       29.99  HX 112
MICHIGAN CITY* NOT AVBL
RENSSELAER*    NOT AVBL
VALPARAISO     CLOUDY    91  76  61 SW13      30.00S HX 103
$$

LMZ740>746-232000-
SOUTHERN LAKE MICHIGAN

STATION/POSITION TIME  SKY/WX   TEMP WIND        PRES    VSBY
                                AIR  DIR/SP/G
                 (UTC)          (F)  (DEG/KT/KT) (MB)    (MI)
HARRISON CRIB    1800            81  100/  8/  8   N/A
BURNHAM HARBOR   1900            83  160/  2/  4   N/A
CALUMET HARBOR   1800            81   60/  6/  8 1014.9S
BURNS HARBOR     1800            82   60/  6/  7 1015.9S
MICHIGAN CITY    1800            78   10/  4/  4   N/A
$$

ABBREVIATIONS USED IN REMARKS
   TC - TEMPERATURE IN CELSIUS
  WCI - WIND CHILL INDEX
   HX - HEAT INDEX
  VSB - VISIBILITY
$$




USA.gov is the U.S. government's official web portal to all federal, state and local government web resources and services.